Time,TemperatureF,DewpointF,PressureIn,WindDirection,WindDirectionDegrees,WindSpeedMPH,WindSpeedGustMPH,Humidity,HourlyPrecipIn,Conditions,Clouds,dailyrainin,SoftwareType,DateUTC
2013-08-20 00:00:00,70.3,69.1,30.10,NE,45,0.0,0.0,96,0.00,,,0.00,VWS V14.01,2013-08-20 04:00:00,
2013-08-20 00:05:00,70.4,69.0,30.10,ENE,61,0.0,0.0,96,0.00,,,0.00,weatherlink.com 1.10,2013-08-20 04:05:00,
2013-08-20 00:10:00,70.3,69.1,30.10,NE,45,0.0,0.0,96,0.00,,,0.00,VWS V14.01,2013-08-20 04:10:00,
2013-08-20 00:20:00,70.4,69.0,30.11,ENE,60,0.0,0.0,96,0.00,,,0.00,weatherlink.com 1.10,2013-08-20 04:20:00,
2013-08-20 00:30:00,70.4,69.2,30.10,NE,45,0.0,0.0,96,0.00,,,0.00,VWS V14.01,2013-08-20 04:30:00,
2013-08-20 00:35:00,70.5,69.0,30.11,ENE,60,0.0,0.0,96,0.00,,,0.00,weatherlink.com 1.10,2013-08-20 04:35:00,
2013-08-20 00:40:00,70.5,69.3,30.10,NE,45,0.0,0.0,96,0.00,,,0.00,VWS V14.01,2013-08-20 04:40:00,
2013-08-20 00:50:00,70.3,69.0,30.11,ENE,60,0.0,0.0,96,0.00,,,0.00,weatherlink.com 1.10,2013-08-20 04:50:00,
2013-08-20 01:00:00,70.3,69.1,30.11,NE,45,0.0,0.0,96,0.00,,,0.00,VWS V14.01,2013-08-20 05:00:00,
2013-08-20 01:05:00,70.2,69.0,30.11,ENE,61,0.0,0.0,96,0.00,,,0.00,weatherlink.com 1.10,2013-08-20 05:05:00,
2013-08-20 01:10:00,70.2,69.0,30.11,NE,45,0.0,0.0,96,0.00,,,0.00,VWS V14.01,2013-08-20 05:10:00,
2013-08-20 01:20:00,70.2,69.0,30.11,ENE,61,0.0,0.0,96,0.00,,,0.00,weatherlink.com 1.10,2013-08-20 05:20:00,
2013-08-20 01:30:00,70.2,69.0,30.11,NE,45,0.0,0.0,96,0.00,,,0.00,VWS V14.01,2013-08-20 05:30:00,
2013-08-20 01:35:00,70.2,69.0,30.11,ENE,60,0.0,0.0,96,0.00,,,0.00,weatherlink.com 1.10,2013-08-20 05:35:00,
2013-08-20 01:40:00,70.2,69.0,30.11,NE,45,0.0,0.0,96,0.00,,,0.00,VWS V14.01,2013-08-20 05:40:00,
2013-08-20 01:50:00,70.2,69.0,30.11,ENE,60,0.0,0.0,96,0.00,,,0.00,weatherlink.com 1.10,2013-08-20 05:50:00,
2013-08-20 02:00:00,70.1,68.9,30.11,NE,45,0.0,0.0,96,0.00,,,0.00,VWS V14.01,2013-08-20 06:00:00,
2013-08-20 02:05:00,70.0,69.0,30.11,ENE,61,0.0,0.0,96,0.00,,,0.00,weatherlink.com 1.10,2013-08-20 06:05:00,
2013-08-20 02:10:00,70.1,68.9,30.11,NE,45,0.0,0.0,96,0.00,,,0.00,VWS V14.01,2013-08-20 06:10:00,
2013-08-20 02:20:00,70.2,69.0,30.10,ENE,60,0.0,0.0,96,0.00,,,0.00,weatherlink.com 1.10,2013-08-20 06:20:00,
2013-08-20 02:30:00,70.3,69.1,30.10,NE,45,0.0,0.0,96,0.00,,,0.00,VWS V14.01,2013-08-20 06:30:00,
2013-08-20 02:35:00,70.3,69.0,30.10,ENE,60,0.0,0.0,96,0.00,,,0.00,weatherlink.com 1.10,2013-08-20 06:35:00,
2013-08-20 02:40:00,70.3,69.1,30.10,NE,45,0.0,0.0,96,0.00,,,0.00,VWS V14.01,2013-08-20 06:40:00,
2013-08-20 02:50:00,70.4,69.0,30.10,ENE,60,0.0,0.0,96,0.00,,,0.00,weatherlink.com 1.10,2013-08-20 06:50:00,
2013-08-20 03:00:00,70.3,69.1,30.09,NE,45,0.0,0.0,96,0.00,,,0.00,VWS V14.01,2013-08-20 07:00:00,
2013-08-20 03:05:00,70.4,69.0,30.10,ENE,60,0.0,0.0,96,0.00,,,0.00,weatherlink.com 1.10,2013-08-20 07:05:00,
2013-08-20 03:10:00,70.4,69.2,30.10,NE,45,0.0,0.0,96,0.00,,,0.00,VWS V14.01,2013-08-20 07:10:00,
2013-08-20 03:20:00,70.4,69.0,30.09,ENE,60,0.0,0.0,96,0.00,,,0.00,weatherlink.com 1.10,2013-08-20 07:20:00,
2013-08-20 03:30:00,70.4,69.2,30.09,NE,45,0.0,0.0,96,0.00,,,0.00,VWS V14.01,2013-08-20 07:30:00,
2013-08-20 03:35:00,70.3,69.0,30.09,ENE,61,0.0,0.0,96,0.00,,,0.00,weatherlink.com 1.10,2013-08-20 07:35:00,
2013-08-20 03:40:00,70.4,69.2,30.09,NE,45,0.0,0.0,96,0.00,,,0.00,VWS V14.01,2013-08-20 07:40:00,
2013-08-20 03:50:00,70.3,69.0,30.09,ENE,60,0.0,0.0,96,0.00,,,0.00,weatherlink.com 1.10,2013-08-20 07:50:00,
2013-08-20 04:00:00,70.2,69.0,30.08,NE,45,0.0,0.0,96,0.00,,,0.00,VWS V14.01,2013-08-20 08:00:00,
2013-08-20 04:05:00,70.2,69.0,30.08,ENE,61,0.0,0.0,96,0.00,,,0.00,weatherlink.com 1.10,2013-08-20 08:05:00,
2013-08-20 04:10:00,70.2,69.0,30.08,NE,45,0.0,0.0,96,0.00,,,0.00,VWS V14.01,2013-08-20 08:10:00,
2013-08-20 04:20:00,70.2,69.0,30.08,ENE,60,0.0,0.0,96,0.00,,,0.00,weatherlink.com 1.10,2013-08-20 08:20:00,
2013-08-20 04:30:00,70.2,69.0,30.08,NE,45,0.0,0.0,96,0.00,,,0.00,VWS V14.01,2013-08-20 08:30:00,
2013-08-20 04:35:00,70.0,69.0,30.08,ENE,60,0.0,0.0,96,0.00,,,0.00,weatherlink.com 1.10,2013-08-20 08:35:00,
2013-08-20 04:40:00,69.9,68.7,30.08,NE,45,0.0,0.0,96,0.00,,,0.00,VWS V14.01,2013-08-20 08:40:00,
2013-08-20 04:50:00,69.9,69.0,30.09,ENE,60,0.0,0.0,96,0.00,,,0.00,weatherlink.com 1.10,2013-08-20 08:50:00,
2013-08-20 05:00:00,70.0,68.8,30.08,NE,45,0.0,0.0,96,0.00,,,0.00,VWS V14.01,2013-08-20 09:00:00,
2013-08-20 05:05:00,70.1,69.0,30.08,ENE,61,0.0,0.0,96,0.00,,,0.00,weatherlink.com 1.10,2013-08-20 09:05:00,
2013-08-20 05:10:00,70.1,68.9,30.08,NE,45,0.0,0.0,96,0.00,,,0.00,VWS V14.01,2013-08-20 09:10:00,
2013-08-20 05:20:00,70.1,69.0,30.08,ENE,61,0.0,0.0,96,0.00,,,0.00,weatherlink.com 1.10,2013-08-20 09:20:00,
2013-08-20 05:30:00,70.1,68.9,30.08,NE,45,0.0,0.0,96,0.00,,,0.00,VWS V14.01,2013-08-20 09:30:00,
2013-08-20 05:35:00,70.1,69.0,30.08,ENE,61,0.0,0.0,96,0.00,,,0.00,weatherlink.com 1.10,2013-08-20 09:35:00,
2013-08-20 05:40:00,70.2,69.0,30.08,NE,45,0.0,0.0,96,0.00,,,0.00,VWS V14.01,2013-08-20 09:40:00,
2013-08-20 05:50:00,70.1,69.0,30.08,ENE,61,0.0,0.0,96,0.00,,,0.00,weatherlink.com 1.10,2013-08-20 09:50:00,
2013-08-20 06:00:00,70.0,68.8,30.08,NE,45,0.0,0.0,96,0.00,,,0.00,VWS V14.01,2013-08-20 10:00:00,
2013-08-20 06:05:00,70.0,69.0,30.08,ENE,61,0.0,0.0,96,0.00,,,0.00,weatherlink.com 1.10,2013-08-20 10:05:00,
2013-08-20 06:10:00,70.1,68.9,30.08,NE,45,0.0,0.0,96,0.00,,,0.00,VWS V14.01,2013-08-20 10:10:00,
2013-08-20 06:20:00,70.1,69.0,30.08,ENE,60,0.0,0.0,96,0.00,,,0.00,weatherlink.com 1.10,2013-08-20 10:20:00,
2013-08-20 06:30:00,70.0,68.8,30.08,NE,45,0.0,0.0,96,0.00,,,0.00,VWS V14.01,2013-08-20 10:30:00,
2013-08-20 06:35:00,70.0,69.0,30.09,ENE,61,0.0,0.0,96,0.00,,,0.00,weatherlink.com 1.10,2013-08-20 10:35:00,
2013-08-20 06:40:00,70.0,68.8,30.09,NE,45,0.0,0.0,96,0.00,,,0.00,VWS V14.01,2013-08-20 10:40:00,
2013-08-20 06:50:00,70.0,69.0,30.09,ENE,60,0.0,0.0,96,0.00,,,0.00,weatherlink.com 1.10,2013-08-20 10:50:00,
2013-08-20 07:00:00,70.0,68.8,30.09,NE,45,0.0,0.0,96,0.00,,,0.00,VWS V14.01,2013-08-20 11:00:00,
2013-08-20 07:05:00,70.0,69.0,30.10,ENE,61,0.0,0.0,96,0.00,,,0.00,weatherlink.com 1.10,2013-08-20 11:05:00,
2013-08-20 07:10:00,69.9,68.7,30.10,NE,45,0.0,0.0,96,0.00,,,0.00,VWS V14.01,2013-08-20 11:10:00,
2013-08-20 07:20:00,69.9,69.0,30.10,ENE,60,0.0,0.0,96,0.00,,,0.00,weatherlink.com 1.10,2013-08-20 11:20:00,
2013-08-20 07:30:00,69.9,68.7,30.10,NE,45,0.0,0.0,96,0.00,,,0.00,VWS V14.01,2013-08-20 11:30:00,
2013-08-20 07:35:00,69.9,69.0,30.11,ENE,60,0.0,0.0,96,0.00,,,0.00,weatherlink.com 1.10,2013-08-20 11:35:00,
2013-08-20 07:40:00,70.0,68.8,30.11,NE,45,0.0,0.0,96,0.00,,,0.00,VWS V14.01,2013-08-20 11:40:00,
2013-08-20 07:50:00,70.0,69.0,30.11,ENE,61,0.0,0.0,96,0.00,,,0.00,weatherlink.com 1.10,2013-08-20 11:50:00,
2013-08-20 08:00:00,70.0,68.8,30.11,NE,45,0.0,0.0,96,0.00,,,0.00,VWS V14.01,2013-08-20 12:00:00,
2013-08-20 08:05:00,70.1,69.0,30.11,ENE,60,0.0,0.0,96,0.00,,,0.00,weatherlink.com 1.10,2013-08-20 12:05:00,
2013-08-20 08:10:00,70.1,68.9,30.11,NE,45,0.0,0.0,96,0.00,,,0.00,VWS V14.01,2013-08-20 12:10:00,
2013-08-20 08:20:00,70.3,69.0,30.11,ENE,61,0.0,0.0,96,0.00,,,0.00,weatherlink.com 1.10,2013-08-20 12:20:00,
2013-08-20 08:30:00,70.5,69.3,30.12,NE,45,0.0,0.0,96,0.00,,,0.00,VWS V14.01,2013-08-20 12:30:00,
2013-08-20 08:35:00,70.6,70.0,30.12,ENE,61,0.0,0.0,96,0.00,,,0.00,weatherlink.com 1.10,2013-08-20 12:35:00,
2013-08-20 08:40:00,70.6,69.4,30.12,NE,45,0.0,0.0,96,0.00,,,0.00,VWS V14.01,2013-08-20 12:40:00,
2013-08-20 08:50:00,70.6,70.0,30.13,ENE,61,0.0,0.0,96,0.00,,,0.00,weatherlink.com 1.10,2013-08-20 12:50:00,
2013-08-20 09:00:00,70.9,69.7,30.13,NE,45,0.0,0.0,96,0.00,,,0.00,VWS V14.01,2013-08-20 13:00:00,
2013-08-20 09:05:00,71.0,70.0,30.13,ENE,61,0.0,0.0,96,0.00,,,0.00,weatherlink.com 1.10,2013-08-20 13:05:00,
2013-08-20 09:10:00,71.0,69.8,30.13,NE,45,0.0,0.0,96,0.00,,,0.00,VWS V14.01,2013-08-20 13:10:00,
2013-08-20 09:20:00,71.3,70.0,30.13,ENE,60,0.0,0.0,96,0.00,,,0.00,weatherlink.com 1.10,2013-08-20 13:20:00,
2013-08-20 09:30:00,71.6,70.1,30.13,NE,45,0.0,0.0,95,0.00,,,0.00,VWS V14.01,2013-08-20 13:30:00,
2013-08-20 09:35:00,71.9,71.0,30.14,West,277,0.0,1.0,95,0.00,,,0.00,weatherlink.com 1.10,2013-08-20 13:35:00,
2013-08-20 09:40:00,72.0,70.5,30.14,West,270,0.0,1.0,95,0.00,,,0.00,VWS V14.01,2013-08-20 13:40:00,
2013-08-20 09:50:00,72.4,70.6,30.14,NE,45,0.0,1.0,94,0.00,,,0.00,VWS V14.01,2013-08-20 13:50:00,
2013-08-20 09:51:00,72.5,71.0,30.14,NNE,19,0.0,1.0,94,0.00,,,0.00,weatherlink.com 1.10,2013-08-20 13:51:00,
2013-08-20 10:00:00,72.9,70.8,30.14,NNE,22,0.0,1.0,93,0.00,,,0.00,VWS V14.01,2013-08-20 14:00:00,
2013-08-20 10:06:00,73.5,71.0,30.14,NNE,29,0.0,1.0,92,0.00,,,0.00,weatherlink.com 1.10,2013-08-20 14:06:00,
2013-08-20 10:10:00,73.6,71.1,30.14,NNE,22,0.0,1.0,92,0.00,,,0.00,VWS V14.01,2013-08-20 14:10:00,
2013-08-20 10:20:00,74.1,71.3,30.15,ENE,68,0.0,1.0,91,0.00,,,0.00,VWS V14.01,2013-08-20 14:20:00,
2013-08-20 10:21:00,74.1,71.0,30.15,ENE,78,0.0,1.0,91,0.00,,,0.00,weatherlink.com 1.10,2013-08-20 14:21:00,
2013-08-20 10:30:00,74.3,71.5,30.15,NNE,22,0.0,2.0,91,0.00,,,0.00,VWS V14.01,2013-08-20 14:30:00,
2013-08-20 10:36:00,74.5,72.0,30.15,ESE,106,0.0,1.0,91,0.00,,,0.00,weatherlink.com 1.10,2013-08-20 14:36:00,
2013-08-20 10:40:00,74.6,71.5,30.15,East,90,0.0,1.0,90,0.00,,,0.00,VWS V14.01,2013-08-20 14:40:00,
2013-08-20 10:50:00,75.0,71.9,30.16,East,90,0.0,0.0,90,0.00,,,0.00,VWS V14.01,2013-08-20 14:50:00,
2013-08-20 10:51:00,75.2,72.0,30.16,ESE,108,0.0,1.0,90,0.00,,,0.00,weatherlink.com 1.10,2013-08-20 14:51:00,
2013-08-20 11:00:00,75.8,72.3,30.16,NE,45,0.0,1.0,89,0.00,,,0.00,VWS V14.01,2013-08-20 15:00:00,
2013-08-20 11:06:00,76.1,73.0,30.16,NE,52,0.0,1.0,89,0.00,,,0.00,weatherlink.com 1.10,2013-08-20 15:06:00,
2013-08-20 11:10:00,76.2,72.1,30.15,NE,45,0.0,1.0,87,0.00,,,0.00,VWS V14.01,2013-08-20 15:10:00,
2013-08-20 11:20:00,76.6,72.8,30.16,NE,45,0.0,1.0,88,0.00,,,0.00,VWS V14.01,2013-08-20 15:20:00,
2013-08-20 11:21:00,76.6,73.0,30.16,ENE,60,0.0,1.0,87,0.00,,,0.00,weatherlink.com 1.10,2013-08-20 15:21:00,
2013-08-20 11:30:00,76.6,72.8,30.16,NE,45,0.0,1.0,88,0.00,,,0.00,VWS V14.01,2013-08-20 15:30:00,
2013-08-20 11:36:00,76.7,73.0,30.16,West,271,0.0,1.0,87,0.00,,,0.00,weatherlink.com 1.10,2013-08-20 15:36:00,
2013-08-20 11:40:00,76.8,73.0,30.16,WSW,248,0.0,1.0,88,0.00,,,0.00,VWS V14.01,2013-08-20 15:40:00,
2013-08-20 11:50:00,77.1,72.6,30.16,NE,45,0.0,1.0,86,0.00,,,0.00,VWS V14.01,2013-08-20 15:50:00,
2013-08-20 11:51:00,77.3,73.0,30.16,NE,53,0.0,1.0,87,0.00,,,0.00,weatherlink.com 1.10,2013-08-20 15:51:00,
2013-08-20 12:00:00,77.3,72.8,30.16,North,0,0.0,1.0,86,0.00,,,0.00,VWS V14.01,2013-08-20 16:00:00,
2013-08-20 12:06:00,77.2,73.0,30.16,NNE,29,0.0,0.0,86,0.00,,,0.00,weatherlink.com 1.10,2013-08-20 16:06:00,
2013-08-20 12:10:00,77.2,72.7,30.17,North,0,0.0,0.0,86,0.00,,,0.00,VWS V14.01,2013-08-20 16:10:00,
2013-08-20 12:20:00,76.9,72.7,30.17,NNE,22,0.0,2.0,87,0.00,,,0.00,VWS V14.01,2013-08-20 16:20:00,
2013-08-20 12:21:00,76.8,73.0,30.17,NNE,31,0.0,0.0,88,0.00,,,0.00,weatherlink.com 1.10,2013-08-20 16:21:00,
2013-08-20 12:30:00,76.5,72.3,30.17,West,270,0.0,1.0,87,0.00,,,0.00,VWS V14.01,2013-08-20 16:30:00,
2013-08-20 12:36:00,76.1,73.0,30.17,WNW,291,0.0,0.0,89,0.00,,,0.00,weatherlink.com 1.10,2013-08-20 16:36:00,
2013-08-20 12:40:00,76.1,72.6,30.17,West,270,0.0,0.0,89,0.00,,,0.00,VWS V14.01,2013-08-20 16:40:00,
2013-08-20 12:50:00,76.2,72.7,30.17,North,0,0.0,1.0,89,0.00,,,0.00,VWS V14.01,2013-08-20 16:50:00,
2013-08-20 12:51:00,76.5,73.0,30.17,NW,314,0.0,1.0,89,0.00,,,0.00,weatherlink.com 1.10,2013-08-20 16:51:00,
2013-08-20 13:00:00,77.0,73.2,30.17,West,270,0.0,1.0,88,0.00,,,0.00,VWS V14.01,2013-08-20 17:00:00,
2013-08-20 13:06:00,77.2,73.0,30.17,NW,316,0.0,1.0,86,0.00,,,0.00,weatherlink.com 1.10,2013-08-20 17:06:00,
2013-08-20 13:10:00,77.3,73.1,30.17,WNW,292,0.0,1.0,87,0.00,,,0.00,VWS V14.01,2013-08-20 17:10:00,
2013-08-20 13:20:00,76.9,72.4,30.16,NE,45,0.0,1.0,86,0.00,,,0.00,VWS V14.01,2013-08-20 17:20:00,
2013-08-20 13:21:00,76.7,72.0,30.16,NE,35,0.0,1.0,86,0.00,,,0.00,weatherlink.com 1.10,2013-08-20 17:21:00,
2013-08-20 13:30:00,76.5,72.3,30.16,NE,45,0.0,1.0,87,0.00,,,0.00,VWS V14.01,2013-08-20 17:30:00,
2013-08-20 13:36:00,76.2,73.0,30.16,South,172,0.0,1.0,88,0.00,,,0.00,weatherlink.com 1.10,2013-08-20 17:36:00,
2013-08-20 13:40:00,76.1,72.3,30.16,NE,45,0.0,0.0,88,0.00,,,0.00,VWS V14.01,2013-08-20 17:40:00,
2013-08-20 13:50:00,75.8,72.3,30.16,ENE,68,0.0,1.0,89,0.00,,,0.00,VWS V14.01,2013-08-20 17:50:00,
2013-08-20 13:51:00,75.7,72.0,30.16,ENE,70,0.0,1.0,89,0.00,,,0.00,weatherlink.com 1.10,2013-08-20 17:51:00,
2013-08-20 14:00:00,75.5,72.4,30.16,ENE,68,0.0,0.0,90,0.00,,,0.00,VWS V14.01,2013-08-20 18:00:00,
2013-08-20 14:06:00,75.4,72.0,30.15,ENE,70,0.0,0.0,90,0.00,,,0.00,weatherlink.com 1.10,2013-08-20 18:06:00,
2013-08-20 14:10:00,75.4,72.3,30.15,ENE,68,0.0,0.0,90,0.00,,,0.00,VWS V14.01,2013-08-20 18:10:00,
2013-08-20 14:20:00,75.5,72.7,30.15,ENE,68,0.0,0.0,91,0.00,,,0.00,VWS V14.01,2013-08-20 18:20:00,
2013-08-20 14:22:00,75.4,73.0,30.15,ENE,70,0.0,0.0,91,0.00,,,0.00,weatherlink.com 1.10,2013-08-20 18:22:00,
2013-08-20 14:30:00,75.3,72.5,30.15,ENE,68,0.0,0.0,91,0.00,,,0.00,VWS V14.01,2013-08-20 18:30:00,
2013-08-20 14:36:00,75.5,73.0,30.14,North,354,0.0,1.0,91,0.00,,,0.00,weatherlink.com 1.10,2013-08-20 18:36:00,
2013-08-20 14:40:00,75.6,72.8,30.14,NE,45,0.0,1.0,91,0.00,,,0.00,VWS V14.01,2013-08-20 18:40:00,
2013-08-20 14:50:00,75.6,72.5,30.14,NE,45,0.0,1.0,90,0.00,,,0.00,VWS V14.01,2013-08-20 18:50:00,
2013-08-20 14:51:00,75.6,73.0,30.13,NE,39,0.0,1.0,90,0.00,,,0.00,weatherlink.com 1.10,2013-08-20 18:51:00,
2013-08-20 15:00:00,75.9,73.1,30.13,NNE,22,0.0,2.0,91,0.00,,,0.00,VWS V14.01,2013-08-20 19:00:00,
2013-08-20 15:06:00,76.9,73.0,30.12,ESE,115,0.0,2.0,88,0.00,,,0.00,weatherlink.com 1.10,2013-08-20 19:06:00,
2013-08-20 15:10:00,77.1,72.9,30.12,NE,45,0.0,2.0,87,0.00,,,0.00,VWS V14.01,2013-08-20 19:10:00,
2013-08-20 15:20:00,78.7,73.5,30.12,North,0,0.0,2.0,84,0.00,,,0.00,VWS V14.01,2013-08-20 19:20:00,
2013-08-20 15:21:00,79.5,74.0,30.12,ENE,72,0.0,1.0,84,0.00,,,0.00,weatherlink.com 1.10,2013-08-20 19:21:00,
2013-08-20 15:30:00,79.3,73.7,30.11,NE,45,0.0,1.0,83,0.00,,,0.00,VWS V14.01,2013-08-20 19:30:00,
2013-08-20 15:36:00,78.8,74.0,30.11,NW,307,0.0,0.0,84,0.00,,,0.00,weatherlink.com 1.10,2013-08-20 19:36:00,
2013-08-20 15:40:00,78.7,73.8,30.11,NE,45,0.0,0.0,85,0.00,,,0.00,VWS V14.01,2013-08-20 19:40:00,
2013-08-20 15:50:00,78.7,73.5,30.11,NE,45,0.0,1.0,84,0.00,,,0.00,VWS V14.01,2013-08-20 19:50:00,
2013-08-20 15:51:00,78.9,74.0,30.10,NNE,32,0.0,1.0,85,0.00,,,0.00,weatherlink.com 1.10,2013-08-20 19:51:00,
2013-08-20 16:00:00,79.1,74.2,30.10,NNE,22,0.0,1.0,85,0.00,,,0.00,VWS V14.01,2013-08-20 20:00:00,
2013-08-20 16:06:00,78.9,74.0,30.10,NE,37,0.0,1.0,84,0.00,,,0.00,weatherlink.com 1.10,2013-08-20 20:06:00,
2013-08-20 16:10:00,79.2,73.9,30.10,NNE,22,0.0,1.0,84,0.00,,,0.00,VWS V14.01,2013-08-20 20:10:00,
2013-08-20 16:20:00,80.3,74.7,30.10,NE,45,0.0,1.0,83,0.00,,,0.00,VWS V14.01,2013-08-20 20:20:00,
2013-08-20 16:21:00,80.3,74.0,30.09,ENE,63,0.0,1.0,82,0.00,,,0.00,weatherlink.com 1.10,2013-08-20 20:21:00,
2013-08-20 16:30:00,80.2,74.2,30.09,NE,45,0.0,0.0,82,0.00,,,0.00,VWS V14.01,2013-08-20 20:30:00,
2013-08-20 16:36:00,79.7,74.0,30.10,ENE,70,0.0,1.0,83,0.00,,,0.00,weatherlink.com 1.10,2013-08-20 20:36:00,
2013-08-20 16:40:00,79.5,73.9,30.09,ENE,68,0.0,2.0,83,0.00,,,0.00,VWS V14.01,2013-08-20 20:40:00,
2013-08-20 16:50:00,79.1,74.2,30.09,ENE,68,0.0,0.0,85,0.00,,,0.00,VWS V14.01,2013-08-20 20:50:00,
2013-08-20 16:51:00,79.2,74.0,30.10,ENE,68,0.0,1.0,85,0.00,,,0.00,weatherlink.com 1.10,2013-08-20 20:51:00,
2013-08-20 17:00:00,79.4,74.5,30.10,ENE,68,0.0,1.0,85,0.00,,,0.00,VWS V14.01,2013-08-20 21:00:00,
2013-08-20 17:06:00,79.4,74.0,30.10,ENE,60,0.0,1.0,84,0.00,,,0.00,weatherlink.com 1.10,2013-08-20 21:06:00,
2013-08-20 17:10:00,79.4,74.5,30.10,ENE,68,0.0,1.0,85,0.00,,,0.00,VWS V14.01,2013-08-20 21:10:00,
2013-08-20 17:20:00,79.3,74.1,30.10,ENE,68,0.0,1.0,84,0.00,,,0.00,VWS V14.01,2013-08-20 21:20:00,
2013-08-20 17:21:00,79.4,75.0,30.10,ENE,60,0.0,1.0,85,0.00,,,0.00,weatherlink.com 1.10,2013-08-20 21:21:00,
2013-08-20 17:30:00,79.6,74.3,30.10,ENE,68,0.0,1.0,84,0.00,,,0.00,VWS V14.01,2013-08-20 21:30:00,
2013-08-20 17:36:00,79.9,75.0,30.09,NE,43,0.0,1.0,85,0.00,,,0.00,weatherlink.com 1.10,2013-08-20 21:36:00,
2013-08-20 17:40:00,79.9,74.6,30.10,NE,45,0.0,1.0,84,0.00,,,0.00,VWS V14.01,2013-08-20 21:40:00,
2013-08-20 17:50:00,79.7,74.4,30.09,NE,45,0.0,1.0,84,0.00,,,0.00,VWS V14.01,2013-08-20 21:50:00,
2013-08-20 17:51:00,79.7,75.0,30.09,WNW,293,0.0,1.0,84,0.00,,,0.00,weatherlink.com 1.10,2013-08-20 21:51:00,
2013-08-20 18:00:00,79.4,74.5,30.09,WNW,292,0.0,1.0,85,0.00,,,0.00,VWS V14.01,2013-08-20 22:00:00,
2013-08-20 18:06:00,79.1,75.0,30.09,NW,318,0.0,0.0,86,0.00,,,0.00,weatherlink.com 1.10,2013-08-20 22:06:00,
2013-08-20 18:10:00,79.0,74.1,30.09,WNW,292,0.0,0.0,85,0.00,,,0.00,VWS V14.01,2013-08-20 22:10:00,
2013-08-20 18:20:00,79.5,74.6,30.09,NNE,22,0.0,1.0,85,0.00,,,0.00,VWS V14.01,2013-08-20 22:20:00,
2013-08-20 18:21:00,79.9,75.0,30.09,ENE,62,0.0,1.0,85,0.00,,,0.00,weatherlink.com 1.10,2013-08-20 22:21:00,
2013-08-20 18:30:00,80.6,75.0,30.09,NE,45,0.0,2.0,83,0.00,,,0.00,VWS V14.01,2013-08-20 22:30:00,
2013-08-20 18:36:00,80.4,75.0,30.09,NNW,339,0.0,1.0,82,0.00,,,0.00,weatherlink.com 1.10,2013-08-20 22:36:00,
2013-08-20 18:40:00,80.4,74.4,30.09,NE,45,0.0,0.0,82,0.00,,,0.00,VWS V14.01,2013-08-20 22:40:00,
2013-08-20 18:50:00,80.5,74.5,30.09,NE,45,0.0,0.0,82,0.00,,,0.00,VWS V14.01,2013-08-20 22:50:00,
2013-08-20 18:51:00,80.1,74.0,30.09,NNW,339,0.0,0.0,82,0.00,,,0.00,weatherlink.com 1.10,2013-08-20 22:51:00,
2013-08-20 19:00:00,79.2,74.3,30.09,NE,45,0.0,0.0,85,0.00,,,0.00,VWS V14.01,2013-08-20 23:00:00,
2013-08-20 19:06:00,78.2,74.0,30.10,NNW,339,0.0,0.0,86,0.00,,,0.00,weatherlink.com 1.10,2013-08-20 23:06:00,
2013-08-20 19:10:00,78.0,73.8,30.10,NE,45,0.0,0.0,87,0.00,,,0.00,VWS V14.01,2013-08-20 23:10:00,
2013-08-20 19:20:00,77.0,73.5,30.09,NE,45,0.0,0.0,89,0.00,,,0.00,VWS V14.01,2013-08-20 23:20:00,
2013-08-20 19:21:00,76.8,73.0,30.10,NNW,339,0.0,0.0,89,0.00,,,0.00,weatherlink.com 1.10,2013-08-20 23:21:00,
2013-08-20 19:30:00,76.4,73.2,30.10,NE,45,0.0,0.0,90,0.00,,,0.00,VWS V14.01,2013-08-20 23:30:00,
2013-08-20 19:36:00,76.0,73.0,30.11,NNW,338,0.0,0.0,91,0.00,,,0.00,weatherlink.com 1.10,2013-08-20 23:36:00,
2013-08-20 19:40:00,75.9,73.1,30.10,NE,45,0.0,0.0,91,0.00,,,0.00,VWS V14.01,2013-08-20 23:40:00,
2013-08-20 19:50:00,75.5,73.0,30.11,NE,45,0.0,0.0,92,0.00,,,0.00,VWS V14.01,2013-08-20 23:50:00,
2013-08-20 19:51:00,75.3,73.0,30.11,NNW,339,0.0,0.0,92,0.00,,,0.00,weatherlink.com 1.10,2013-08-20 23:51:00,
2013-08-20 20:00:00,75.1,72.6,30.11,NE,45,0.0,0.0,92,0.00,,,0.00,VWS V14.01,2013-08-21 00:00:00,
2013-08-20 20:06:00,74.8,73.0,30.11,NNW,339,0.0,0.0,93,0.00,,,0.00,weatherlink.com 1.10,2013-08-21 00:06:00,
2013-08-20 20:10:00,74.8,72.6,30.11,NE,45,0.0,0.0,93,0.00,,,0.00,VWS V14.01,2013-08-21 00:10:00,
2013-08-20 20:20:00,74.4,72.2,30.11,NE,45,0.0,0.0,93,0.00,,,0.00,VWS V14.01,2013-08-21 00:20:00,
2013-08-20 20:30:00,74.2,72.4,30.11,NE,45,0.0,0.0,94,0.00,,,0.00,VWS V14.01,2013-08-21 00:30:00,
2013-08-20 20:36:00,74.1,72.0,30.11,NNW,339,0.0,0.0,94,0.00,,,0.00,weatherlink.com 1.10,2013-08-21 00:36:00,
2013-08-20 20:40:00,74.0,72.2,30.11,NE,45,0.0,0.0,94,0.00,,,0.00,VWS V14.01,2013-08-21 00:40:00,
2013-08-20 20:50:00,73.8,72.0,30.11,NE,45,0.0,0.0,94,0.00,,,0.00,VWS V14.01,2013-08-21 00:50:00,
2013-08-20 20:51:00,73.7,72.0,30.11,NNW,339,0.0,0.0,94,0.00,,,0.00,weatherlink.com 1.10,2013-08-21 00:51:00,
2013-08-20 21:00:00,73.6,72.1,30.11,NE,45,0.0,0.0,95,0.00,,,0.00,VWS V14.01,2013-08-21 01:00:00,
2013-08-20 21:06:00,73.5,72.0,30.11,NNW,339,0.0,0.0,95,0.00,,,0.00,weatherlink.com 1.10,2013-08-21 01:06:00,
2013-08-20 21:10:00,73.5,72.0,30.11,NE,45,0.0,0.0,95,0.00,,,0.00,VWS V14.01,2013-08-21 01:10:00,
2013-08-20 21:20:00,73.4,71.9,30.12,NE,45,0.0,0.0,95,0.00,,,0.00,VWS V14.01,2013-08-21 01:20:00,
2013-08-20 21:21:00,73.4,72.0,30.12,NNW,338,0.0,0.0,95,0.00,,,0.00,weatherlink.com 1.10,2013-08-21 01:21:00,
2013-08-20 21:30:00,73.3,71.8,30.12,NE,45,0.0,0.0,95,0.00,,,0.00,VWS V14.01,2013-08-21 01:30:00,
2013-08-20 21:36:00,73.2,72.0,30.12,NNW,338,0.0,0.0,95,0.00,,,0.00,weatherlink.com 1.10,2013-08-21 01:36:00,
2013-08-20 21:40:00,73.2,71.7,30.12,NE,45,0.0,0.0,95,0.00,,,0.00,VWS V14.01,2013-08-21 01:40:00,
2013-08-20 21:50:00,73.1,71.6,30.13,NE,45,0.0,0.0,95,0.00,,,0.00,VWS V14.01,2013-08-21 01:50:00,
2013-08-20 21:51:00,73.1,72.0,30.13,NNW,339,0.0,0.0,95,0.00,,,0.00,weatherlink.com 1.10,2013-08-21 01:51:00,
2013-08-20 22:00:00,73.0,71.5,30.13,NE,45,0.0,0.0,95,0.00,,,0.00,VWS V14.01,2013-08-21 02:00:00,
2013-08-20 22:06:00,73.0,72.0,30.14,NNW,338,0.0,0.0,95,0.00,,,0.00,weatherlink.com 1.10,2013-08-21 02:06:00,
2013-08-20 22:10:00,72.9,71.4,30.14,NE,45,0.0,0.0,95,0.00,,,0.00,VWS V14.01,2013-08-21 02:10:00,
2013-08-20 22:20:00,72.8,71.3,30.15,NE,45,0.0,0.0,95,0.00,,,0.00,VWS V14.01,2013-08-21 02:20:00,
2013-08-20 22:21:00,72.7,71.0,30.15,NNW,339,0.0,0.0,95,0.00,,,0.00,weatherlink.com 1.10,2013-08-21 02:21:00,
2013-08-20 22:30:00,72.6,71.1,30.15,NE,45,0.0,0.0,95,0.00,,,0.00,VWS V14.01,2013-08-21 02:30:00,
2013-08-20 22:36:00,72.5,71.0,30.16,NNW,339,0.0,0.0,95,0.00,,,0.00,weatherlink.com 1.10,2013-08-21 02:36:00,
2013-08-20 22:40:00,72.6,71.1,30.16,NE,45,0.0,0.0,95,0.00,,,0.00,VWS V14.01,2013-08-21 02:40:00,
2013-08-20 22:50:00,72.5,71.0,30.16,NE,45,0.0,0.0,95,0.00,,,0.00,VWS V14.01,2013-08-21 02:50:00,
2013-08-20 22:51:00,72.5,71.0,30.16,NNW,339,0.0,0.0,95,0.00,,,0.00,weatherlink.com 1.10,2013-08-21 02:51:00,
2013-08-20 23:00:00,72.5,71.0,30.17,NE,45,0.0,0.0,95,0.00,,,0.00,VWS V14.01,2013-08-21 03:00:00,
2013-08-20 23:06:00,72.5,71.0,30.17,NNW,338,0.0,0.0,95,0.00,,,0.00,weatherlink.com 1.10,2013-08-21 03:06:00,
2013-08-20 23:10:00,72.5,71.0,30.17,NE,45,0.0,0.0,95,0.00,,,0.00,VWS V14.01,2013-08-21 03:10:00,
2013-08-20 23:20:00,72.4,70.9,30.17,NE,45,0.0,0.0,95,0.00,,,0.00,VWS V14.01,2013-08-21 03:20:00,
2013-08-20 23:21:00,72.4,71.0,30.17,NNW,338,0.0,0.0,95,0.00,,,0.00,weatherlink.com 1.10,2013-08-21 03:21:00,
2013-08-20 23:30:00,72.4,70.9,30.17,NE,45,0.0,0.0,95,0.00,,,0.00,VWS V14.01,2013-08-21 03:30:00,
2013-08-20 23:37:00,72.3,71.0,30.17,NNW,339,0.0,0.0,95,0.00,,,0.00,weatherlink.com 1.10,2013-08-21 03:37:00,
2013-08-20 23:40:00,72.3,70.8,30.17,NE,45,0.0,0.0,95,0.00,,,0.00,VWS V14.01,2013-08-21 03:40:00,
2013-08-20 23:50:00,72.2,70.7,30.17,NE,45,0.0,0.0,95,0.00,,,0.00,VWS V14.01,2013-08-21 03:50:00,
2013-08-20 23:52:00,72.2,71.0,30.16,NNW,339,0.0,0.0,95,0.00,,,0.00,weatherlink.com 1.10,2013-08-21 03:52:00,